Location: Unspecified
(0.0000°N, 1.0000°E)
Time: 05:25:01
(UTC+01:00)

Amateur Radio Satellites - All Passes

Search period start: 23 December 2014 04:55
Search period end: 24 December 2014 04:55
Location: Unspecified, 0.0000°N, 1.0000°E

Satellite Date Start Highest point End Downlink Frequencies (MHz)
Time Altitude Azimuth
MOZHAYETS 4 23 Dec 05:04:19 05:08:32 35° 78° (ENE) 05:12:44
JAS-2 23 Dec 05:18:36 05:23:29 44° 103° (ESE) 05:28:31 435.910
SRMSAT 23 Dec 05:30:48 05:34:38 17° 166° (SSE) 05:38:27 437.500
CUTE-I 23 Dec 05:56:49 06:00:03 16° 103° (ESE) 06:03:17 437.470
GONETS M04 23 Dec 06:05:15 06:14:05 82° 273° (W) 06:22:56
AO-7 23 Dec 06:06:05 06:12:27 25° 287° (WNW) 06:18:52 29.400- 29.500
JUGNU 23 Dec 06:10:34 06:16:13 48° 159° (SSE) 06:21:54 437.505
PRISM 23 Dec 06:30:59 06:35:03 45° 78° (ENE) 06:39:05 437.425
CUBESAT XI-V 23 Dec 06:35:05 06:38:35 21° 78° (ENE) 06:42:02 437.345
MOZHAYETS 4 23 Dec 06:44:25 06:45:28 11° 258° (WSW) 06:46:31
Cubesat XI-IV 23 Dec 07:02:01 07:07:19 78° 283° (WNW) 07:12:40 437.490
SRMSAT 23 Dec 07:18:42 07:24:16 39° 160° (SSE) 07:29:50 437.500
CUTE-I 23 Dec 07:35:08 07:39:49 32° 283° (WNW) 07:44:32 437.470
SO-50 23 Dec 07:35:46 07:40:36 65° 68° (ENE) 07:45:23 436.795
MaSat-1 23 Dec 07:41:46 07:44:24 75° 108° (ESE) 07:46:51 437.345
STRAND 1 23 Dec 07:44:00 07:49:05 62° 257° (WSW) 07:54:07 437.568
JUGNU 23 Dec 07:59:27 08:05:17 62° 339° (NNW) 08:11:10 437.505
CUBESAT XI-V 23 Dec 08:12:23 08:15:44 19° 258° (WSW) 08:19:04 437.345
BRITE-PL 23 Dec 08:20:30 08:22:53 13° 104° (ESE) 08:25:19 437.365/2234.400
CUTE 1.7 + AOD 2 23 Dec 08:33:57 08:35:01 11° 102° (ESE) 08:36:04 437.475
GOMX 1 23 Dec 08:34:23 08:36:33 12° 103° (ESE) 08:38:43 467.674
HO-68 23 Dec 08:46:30 08:52:43 33° 105° (ESE) 08:58:56 435.675
DOVE 4 23 Dec 08:47:56 08:49:59 12° 103° (ESE) 08:52:03 437.250
SRMSAT 23 Dec 09:07:32 09:13:32 77° 339° (NNW) 09:19:32 437.500
AAUSAT CUBESAT 2 23 Dec 09:13:48 09:17:11 24° 102° (ESE) 09:20:34 437.432
DANDE 23 Dec 09:18:29 09:20:19 17° 92° (E) 09:22:18 436.750
Oscar 11 23 Dec 09:19:04 09:20:21 11° 102° (ESE) 09:21:37 145.826/435.025
UKube-1 23 Dec 09:29:56 09:30:36 10° 103° (ESE) 09:31:16 .
CANX-2 23 Dec 09:35:59 09:40:15 73° 281° (W) 09:44:31 2200.000
JUGNU 23 Dec 09:49:48 09:54:33 24° 343° (NNW) 09:59:19 437.505
COMPASS 1 23 Dec 09:50:14 09:54:26 78° 281° (WNW) 09:58:38 437.405
DELFI C3 23 Dec 09:51:22 09:54:47 26° 102° (ESE) 09:58:11 145.870
VERMONT LUNAR 23 Dec 09:53:48 09:54:27 10° 42° (NE) 09:55:07 437.305
CUBEBUG 2 23 Dec 09:54:54 09:58:44 24° 102° (ESE) 10:02:35 437.445
ZACube-1 23 Dec 09:55:05 09:57:45 15° 102° (ESE) 10:00:25 437.345
CUSAT 1 23 Dec 09:55:46 09:58:23 43° 277° (W) 10:01:26 437.405
BRITE-PL 23 Dec 09:55:57 10:00:57 44° 281° (W) 10:06:16 437.365/2234.400
SEEDS 23 Dec 09:59:38 10:03:40 44° 282° (WNW) 10:07:42 437.485
CUTE 1.7 + AOD 2 23 Dec 10:06:58 10:10:40 29° 282° (WNW) 10:14:21 437.475
GOMX 1 23 Dec 10:09:17 10:14:15 44° 281° (WNW) 10:19:26 467.674
FUNcube-1 23 Dec 10:19:30 10:23:37 33° 102° (ESE) 10:27:44 145.935
PHONESAT 2.4 23 Dec 10:20:03 10:21:11 11° 42° (NE) 10:22:19 2401.200-2431.200
DOVE 4 23 Dec 10:22:30 10:27:22 42° 281° (WNW) 10:32:24 437.250
RS-15 23 Dec 10:24:25 10:35:29 57° 111° (ESE) 10:46:05 29.354- 29.394
TIGRISAT 23 Dec 10:26:17 10:28:45 15° 78° (ENE) 10:31:13 435.000
UWE-3 23 Dec 10:26:40 10:31:15 54° 102° (ESE) 10:35:49 435.000/436.395/437.385
CINEMA 3 23 Dec 10:28:11 10:33:07 65° 282° (WNW) 10:38:08 145.822/145.860
DX 1 23 Dec 10:34:03 10:38:24 79° 282° (WNW) 10:42:46 434.975-435.025
HUMSAT D 23 Dec 10:34:16 10:37:52 26° 102° (ESE) 10:41:29 437.325/437.525
HO-68 23 Dec 10:34:21 10:40:05 27° 285° (WNW) 10:45:52 435.675
QB50P2 23 Dec 10:39:31 10:41:37 14° 78° (ENE) 10:43:42 145.880/145.840
NANOSAT C BR1 23 Dec 10:48:19 10:51:12 18° 78° (ENE) 10:54:05 145.865
POLYITAN 1 23 Dec 10:48:29 10:51:26 19° 78° (ENE) 10:54:21 437.675
AISAT 23 Dec 10:49:06 10:53:15 39° 102° (ESE) 10:57:27 437.250
YUBILEINY 23 Dec 10:50:24 10:55:47 18° 87° (E) 11:01:09 435.215
AAUSAT CUBESAT 2 23 Dec 10:50:46 10:52:35 13° 282° (WNW) 10:54:24 437.432
Oscar 11 23 Dec 10:52:30 10:56:14 29° 282° (WNW) 11:00:00 145.826/435.025
UNISAT 6 23 Dec 10:55:16 10:59:19 42° 78° (ENE) 11:03:24 437.425
SRMSAT 23 Dec 10:57:45 11:02:53 29° 342° (NNW) 11:08:01 437.500
ISS 23 Dec 10:59:30 11:02:47 61° 305° (NW) 11:06:03 145.825
QB50P1 23 Dec 11:02:25 11:06:06 29° 78° (ENE) 11:09:45 145.935-145.965
UKube-1 23 Dec 11:02:39 11:06:28 31° 282° (WNW) 11:10:19 .
50 SAT 23 Dec 11:25:33 11:29:41 71° 282° (WNW) 11:33:49 437.505
ANTELSAT 23 Dec 11:27:15 11:31:29 63° 258° (WSW) 11:35:46 437.575/2403.000
DELFI C3 23 Dec 11:28:53 11:29:46 11° 282° (WNW) 11:30:40 145.870
VERMONT LUNAR 23 Dec 11:29:15 11:32:39 47° 223° (SW) 11:36:04 437.305
ZACube-1 23 Dec 11:30:04 11:33:50 25° 282° (WNW) 11:37:37 437.345
POPSAT HIP 1 23 Dec 11:30:54 11:35:08 81° 78° (ENE) 11:39:20 437.405
BEESAT 3 23 Dec 11:31:15 11:34:53 34° 112° (ESE) 11:38:33 437.485
CUBEBUG 2 23 Dec 11:32:01 11:35:09 18° 282° (WNW) 11:38:17 437.445
VELOX 1 23 Dec 11:40:46 11:44:52 38° 282° (WNW) 11:49:00 145.980
JUGNU 23 Dec 11:41:56 11:44:20 12° 351° (N) 11:46:43 437.505
BUGSAT 1 23 Dec 11:43:15 11:47:26 87° 258° (WSW) 11:51:33 437.445
ESTCUBE 1 23 Dec 11:52:55 11:57:23 86° 282° (WNW) 12:01:53 437.505/2401.250
AIST 2 23 Dec 11:54:16 11:57:29 22° 112° (ESE) 12:00:44 435.215
PHONESAT 2.4 23 Dec 11:56:15 11:59:45 47° 223° (SW) 12:03:17 2401.200-2431.200
DUCHIFAT 1 23 Dec 11:57:44 12:01:40 39° 258° (WSW) 12:05:35 145.980
FUNcube-1 23 Dec 11:58:12 11:59:41 11° 282° (WNW) 12:01:09 145.935
O/OREOS (USA 219) 23 Dec 12:00:10 12:04:43 87° 255° (WSW) 12:09:19 437.305
TIGRISAT 23 Dec 12:02:01 12:05:14 21° 258° (WSW) 12:08:28 435.000
HUMSAT D 23 Dec 12:11:24 12:13:24 13° 282° (WNW) 12:15:24 437.325/437.525
BEESAT 2 23 Dec 12:13:18 12:17:15 61° 292° (WNW) 12:21:15 435.950
QB50P2 23 Dec 12:13:56 12:17:16 23° 258° (WSW) 12:20:36 145.880/145.840
CUBEBUG 1 23 Dec 12:21:30 12:25:27 35° 282° (WNW) 12:29:27 437.445
NANOSAT C BR1 23 Dec 12:24:03 12:26:49 17° 258° (WSW) 12:29:34 145.865
POLYITAN 1 23 Dec 12:24:24 12:27:06 17° 258° (WSW) 12:29:47 437.675
RS-15 23 Dec 12:39:15 12:47:21 23° 292° (WNW) 12:55:22 29.354- 29.394
QB50P1 23 Dec 12:41:15 12:41:42 10° 258° (WSW) 12:42:09 145.935-145.965
YUBILEINY 23 Dec 12:43:46 12:52:09 54° 267° (W) 13:00:39 435.215
PCSat 23 Dec 12:45:43 12:51:07 86° 289° (WNW) 12:56:30 145.827
SRMSAT 23 Dec 12:49:43 12:52:42 14° 349° (N) 12:55:41 437.500
TISAT 1 23 Dec 13:05:38 13:09:44 49° 282° (WNW) 13:13:52 437.305
SPROUT 23 Dec 13:18:21 13:22:17 35° 282° (WNW) 13:26:16 437.525
SWISSCUBE 23 Dec 13:32:27 13:36:40 32° 102° (ESE) 13:40:54 437.505
AIST 2 23 Dec 13:33:42 13:35:51 14° 293° (WNW) 13:38:01 435.215
ITUPSAT 1 23 Dec 13:34:11 13:38:19 30° 102° (ESE) 13:42:28 437.325
BEESAT 23 Dec 13:56:23 14:01:04 63° 102° (ESE) 14:05:46 436.000
KKS-1 23 Dec 14:16:28 14:18:44 14° 103° (ESE) 14:21:00 437.445
Oscar 19 23 Dec 14:21:42 14:26:46 63° 258° (WSW) 14:31:50 437.125/150
ITAMSAT 1 23 Dec 14:43:45 14:48:55 66° 77° (ENE) 14:54:02 435.822/435.867
AUBIESAT-1 23 Dec 14:51:22 14:55:00 73° 285° (WNW) 14:58:24 437.475
Gurwin Techsat 1B 23 Dec 14:55:39 15:00:46 49° 78° (ENE) 15:05:51 435.225
SWISSCUBE 23 Dec 15:12:19 15:14:15 12° 283° (WNW) 15:16:11 437.505
ITUPSAT 1 23 Dec 15:13:38 15:15:56 14° 283° (WNW) 15:18:15 437.325
M-CUBED/EXP-1 PRIME 23 Dec 15:20:00 15:22:47 21° 287° (WNW) 15:25:27 437.505
JUGNU 23 Dec 15:21:26 15:24:40 15° 12° (NNE) 15:27:54 437.505
STARS 23 Dec 15:40:41 15:45:04 61° 282° (WNW) 15:49:29 437.465
KKS-1 23 Dec 15:51:22 15:55:05 26° 282° (WNW) 15:58:50 437.445
HORYU 2 23 Dec 15:59:28 16:03:55 83° 258° (WSW) 16:08:22 437.375
SRMSAT 23 Dec 16:30:44 16:33:21 13° 10° (N) 16:35:58 437.500
AIST 1 23 Dec 16:31:45 16:36:10 79° 94° (E) 16:40:32
AO-7 23 Dec 16:38:10 16:46:25 71° 74° (ENE) 16:54:40 29.400- 29.500
GONETS M04 23 Dec 16:44:46 16:51:16 24° 87° (E) 16:57:43
JAS-2 23 Dec 16:49:56 16:56:45 33° 77° (ENE) 17:03:20 435.910
JUGNU 23 Dec 17:09:02 17:14:17 31° 19° (NNE) 17:19:29 437.505
MOZHAYETS 4 23 Dec 17:21:06 17:25:36 60° 102° (ESE) 17:30:06
Cubesat XI-IV 23 Dec 18:03:25 18:07:18 20° 77° (ENE) 18:11:08 437.490
SRMSAT 23 Dec 18:18:19 18:23:13 26° 18° (NNE) 18:28:06 437.500
CUTE-I 23 Dec 18:34:30 18:39:38 48° 77° (ENE) 18:44:43 437.470
JAS-2 23 Dec 18:34:34 18:41:22 33° 256° (WSW) 18:48:02 435.910
AO-7 23 Dec 18:35:02 18:38:45 14° 253° (WSW) 18:42:29 29.400- 29.500
PRISM 23 Dec 18:35:31 18:39:31 52° 102° (ESE) 18:43:31 437.425
STRAND 1 23 Dec 18:39:07 18:42:46 20° 103° (ESE) 18:46:25 437.568
GONETS M04 23 Dec 18:39:40 18:47:40 43° 267° (W) 18:55:43
CUBESAT XI-V 23 Dec 18:52:57 18:57:09 35° 102° (ESE) 19:01:22 437.345
JUGNU 23 Dec 18:57:28 19:03:26 84° 21° (NNE) 19:09:21 437.505
MaSat-1 23 Dec 19:04:14 19:06:08 17° 74° (ENE) 19:08:08 437.345
Cubesat XI-IV 23 Dec 19:42:43 19:47:06 26° 257° (WSW) 19:51:28 437.490
SO-50 23 Dec 19:49:13 19:53:33 66° 292° (WNW) 19:57:57 436.795
SRMSAT 23 Dec 20:06:41 20:12:34 69° 21° (NNE) 20:18:27 437.500
STRAND 1 23 Dec 20:17:37 20:21:40 24° 283° (WNW) 20:25:45 437.568
CUTE-I 23 Dec 20:18:39 20:19:23 10° 256° (WSW) 20:20:07 437.470
DANDE 23 Dec 20:22:10 20:27:37 19° 83° (E) 20:32:48 436.750
CUBESAT XI-V 23 Dec 20:33:43 20:34:19 10° 282° (WNW) 20:34:56 437.345
HO-68 23 Dec 20:38:28 20:44:22 28° 75° (ENE) 20:50:14 435.675
CUTE 1.7 + AOD 2 23 Dec 20:39:55 20:42:04 14° 78° (ENE) 20:44:14 437.475
BRITE-PL 23 Dec 20:47:03 20:50:22 21° 80° (E) 20:53:32 437.365/2234.400
JUGNU 23 Dec 20:47:10 20:52:32 35° 200° (SSW) 20:57:52 437.505
CUSAT 1 23 Dec 20:55:49 21:03:45 45° 84° (E) 21:10:51 437.405
GOMX 1 23 Dec 20:57:53 21:00:49 18° 79° (E) 21:03:41 467.674
DOVE 4 23 Dec 21:08:43 21:11:25 17° 79° (E) 21:14:04 437.250
AAUSAT CUBESAT 2 23 Dec 21:18:40 21:22:17 28° 78° (ENE) 21:25:53 437.432
Oscar 11 23 Dec 21:26:55 21:29:25 15° 78° (ENE) 21:31:54 145.826/435.025
UKube-1 23 Dec 21:37:45 21:40:05 14° 78° (ENE) 21:42:24 .
CANX-2 23 Dec 21:43:14 21:47:24 56° 259° (WSW) 21:51:34 2200.000
DELFI C3 23 Dec 21:53:19 21:56:50 28° 78° (ENE) 22:00:21 145.870
COMPASS 1 23 Dec 21:55:47 21:59:56 64° 259° (WSW) 22:04:06 437.405
SRMSAT 23 Dec 21:56:13 22:01:48 43° 200° (SSW) 22:07:23 437.500
DANDE 23 Dec 22:02:28 22:11:00 62° 266° (W) 22:18:43 436.750
PHONESAT 2.4 23 Dec 22:03:26 22:04:04 10° 139° (SE) 22:04:42 2401.200-2431.200
RS-15 23 Dec 22:05:23 22:16:33 49° 70° (ENE) 22:28:03 29.354- 29.394
ZACube-1 23 Dec 22:05:24 22:08:16 18° 78° (ENE) 22:11:09 437.345
SEEDS 23 Dec 22:06:06 22:09:58 35° 258° (WSW) 22:13:49 437.485
CUBEBUG 2 23 Dec 22:08:06 22:11:47 31° 78° (ENE) 22:15:28 437.445
CUTE 1.7 + AOD 2 23 Dec 22:14:23 22:17:44 23° 258° (WSW) 22:21:04 437.475
VELOX 1 23 Dec 22:18:57 22:21:12 14° 78° (ENE) 22:23:26 145.980
HO-68 23 Dec 22:25:31 22:31:44 32° 255° (WSW) 22:37:58 435.675
BRITE-PL 23 Dec 22:26:06 22:28:37 15° 257° (WSW) 22:31:03 437.365/2234.400
FUNcube-1 23 Dec 22:30:03 22:33:58 42° 78° (ENE) 22:37:54 145.935
ISS 23 Dec 22:34:06 22:37:20 77° 55° (NE) 22:40:35 145.825
GOMX 1 23 Dec 22:36:01 22:38:43 16° 257° (WSW) 22:41:21 467.674
TIGRISAT 23 Dec 22:38:35 22:42:27 26° 102° (ESE) 22:46:18 435.000
JUGNU 23 Dec 22:38:35 22:42:02 16° 193° (SSW) 22:45:28 437.505
UWE-3 23 Dec 22:38:57 22:43:05 78° 78° (ENE) 22:47:14 435.000/436.395/437.385
CUSAT 1 23 Dec 22:39:56 22:46:22 25° 268° (W) 22:52:18 437.405
HUMSAT D 23 Dec 22:40:28 22:44:03 29° 78° (ENE) 22:47:38 437.325/437.525
DX 1 23 Dec 22:44:18 22:48:34 55° 258° (WSW) 22:52:49 434.975-435.025
QB50P2 23 Dec 22:45:53 22:48:46 18° 102° (ESE) 22:51:39 145.880/145.840
DOVE 4 23 Dec 22:46:10 22:48:57 17° 257° (WSW) 22:51:41 437.250
CINEMA 3 23 Dec 22:46:26 22:50:10 32° 258° (WSW) 22:53:53 145.822/145.860
NANOSAT C BR1 23 Dec 22:54:38 22:58:01 23° 102° (ESE) 23:01:26 145.865
POLYITAN 1 23 Dec 22:55:17 22:58:46 24° 102° (ESE) 23:02:17 437.675
AAUSAT CUBESAT 2 23 Dec 22:56:55 22:57:40 10° 258° (WSW) 22:58:25 437.432
CUBEBUG 1 23 Dec 22:58:02 23:00:15 14° 78° (ENE) 23:02:28 437.445
AISAT 23 Dec 23:01:52 23:06:15 61° 78° (ENE) 23:10:36 437.250
Oscar 11 23 Dec 23:02:00 23:05:18 22° 258° (WSW) 23:08:37 145.826/435.025
UNISAT 6 23 Dec 23:08:41 23:13:22 70° 102° (ESE) 23:17:59 437.425
QB50P1 23 Dec 23:09:03 23:13:01 37° 102° (ESE) 23:17:00 145.935-145.965
VERMONT LUNAR 23 Dec 23:09:21 23:12:51 57° 317° (NW) 23:16:19 437.305
UKube-1 23 Dec 23:12:31 23:15:58 23° 258° (WSW) 23:19:25 .
YUBILEINY 23 Dec 23:21:32 23:29:28 38° 93° (E) 23:37:18 435.215
BEESAT 3 23 Dec 23:27:12 23:31:01 40° 68° (ENE) 23:34:48 437.485
50 SAT 23 Dec 23:27:24 23:31:21 66° 258° (WSW) 23:35:19 437.505
POPSAT HIP 1 23 Dec 23:37:50 23:42:07 79° 282° (WNW) 23:46:27 437.405
PHONESAT 2.4 23 Dec 23:39:06 23:42:41 52° 317° (NW) 23:46:13 2401.200-2431.200
PCSat 23 Dec 23:40:25 23:44:14 20° 70° (ENE) 23:48:01 145.827
ANTELSAT 23 Dec 23:41:10 23:45:35 41° 282° (WNW) 23:49:58 437.575/2403.000
ZACube-1 23 Dec 23:41:52 23:44:24 16° 258° (WSW) 23:46:56 437.345
BUGSAT 1 23 Dec 23:47:06 23:51:13 76° 282° (WNW) 23:55:24 437.445
SRMSAT 23 Dec 23:47:23 23:51:22 18° 195° (SSW) 23:55:20 437.500
AIST 2 23 Dec 23:53:19 23:56:55 28° 68° (ENE) 00:00:28 435.215
SPROUT 23 Dec 23:53:28 23:55:02 12° 78° (ENE) 23:56:36 437.525
VELOX 1 23 Dec 23:53:51 23:57:31 25° 258° (WSW) 00:01:09 145.980
DUCHIFAT 1 24 Dec 00:04:33 00:08:21 32° 282° (WNW) 00:12:12 145.980
ESTCUBE 1 24 Dec 00:07:40 00:12:06 53° 258° (WSW) 00:16:31 437.505/2401.250
BEESAT 2 24 Dec 00:09:58 00:13:56 51° 249° (WSW) 00:17:50 435.950
O/OREOS (USA 219) 24 Dec 00:11:31 00:15:50 48° 284° (WNW) 00:20:08 437.305
TIGRISAT 24 Dec 00:16:10 00:18:54 16° 282° (WNW) 00:21:39 435.000
RS-15 24 Dec 00:18:42 00:28:37 31° 248° (WSW) 00:38:52 29.354- 29.394
QB50P2 24 Dec 00:21:24 00:24:24 19° 282° (WNW) 00:27:25 145.880/145.840
NANOSAT C BR1 24 Dec 00:31:23 00:33:38 14° 282° (WNW) 00:35:53 145.865
POLYITAN 1 24 Dec 00:32:18 00:34:27 14° 282° (WNW) 00:36:36 437.675
CUBEBUG 1 24 Dec 00:32:45 00:36:22 25° 258° (WSW) 00:39:56 437.445
TISAT 1 24 Dec 01:12:30 01:16:27 38° 258° (WSW) 01:20:21 437.305
Oscar 19 24 Dec 01:17:42 01:21:27 20° 103° (ESE) 01:25:12 437.125/150
YUBILEINY 24 Dec 01:18:49 01:25:51 27° 273° (W) 01:32:53 435.215
PCSat 24 Dec 01:22:51 01:27:21 27° 250° (WSW) 01:31:52 145.827
SPROUT 24 Dec 01:27:15 01:30:52 27° 258° (WSW) 01:34:28 437.525
AIST 2 24 Dec 01:34:22 01:35:15 11° 248° (WSW) 01:36:09 435.215
SRMSAT 24 Dec 01:40:28 01:41:29 10° 185° (S) 01:42:30 437.500
ITAMSAT 1 24 Dec 01:44:01 01:44:42 10° 104° (ESE) 01:45:22 435.822/435.867
M-CUBED/EXP-1 PRIME 24 Dec 01:48:00 01:50:51 16° 73° (ENE) 01:53:47 437.505
SWISSCUBE 24 Dec 01:54:22 01:59:09 66° 78° (ENE) 02:03:53 437.505
ITUPSAT 1 24 Dec 01:56:17 02:01:02 61° 78° (ENE) 02:05:46 437.325
BEESAT 24 Dec 02:18:39 02:23:25 65° 258° (WSW) 02:28:09 436.000
JUGNU 24 Dec 02:20:37 02:22:16 11° 172° (S) 02:23:55 437.505
KKS-1 24 Dec 02:28:29 02:31:45 20° 78° (ENE) 02:35:00 437.445
AUBIESAT-1 24 Dec 02:52:45 02:57:16 74° 254° (WSW) 03:02:02 437.475
Oscar 19 24 Dec 02:56:23 03:00:31 24° 283° (WNW) 03:04:39 437.125/150
AO-7 24 Dec 03:17:17 03:20:30 13° 107° (ESE) 03:23:43 29.400- 29.500
ITAMSAT 1 24 Dec 03:18:57 03:23:52 46° 283° (WNW) 03:28:50 435.822/435.867
M-CUBED/EXP-1 PRIME 24 Dec 03:21:43 03:25:31 27° 255° (WSW) 03:29:31 437.505
SRMSAT 24 Dec 03:30:38 03:31:53 11° 174° (S) 03:33:07 437.500
Gurwin Techsat 1B 24 Dec 03:34:03 03:39:13 57° 282° (WNW) 03:44:26 435.225
STARS 24 Dec 03:52:45 03:56:52 40° 258° (WSW) 04:00:57 437.465
KKS-1 24 Dec 04:05:13 04:08:07 17° 258° (WSW) 04:11:01 437.445
JUGNU 24 Dec 04:07:42 04:12:05 21° 164° (SSE) 04:16:28 437.505
HORYU 2 24 Dec 04:12:45 04:17:07 53° 282° (WNW) 04:21:30 437.375
AIST 1 24 Dec 04:38:52 04:43:05 71° 266° (W) 04:47:21
